Home > Weather > Hohhot > Past weeks

Flag for China Weather for the Past 2 Weeks in Hohhot, Inner Mongolia, China

Now
81 °F

Passing clouds.


Feels Like: 79 °F
Forecast: 51 / 73 °F
Wind: 15 mph from Southwest

Location: Hohhot Airport

Current Time: Apr 30, 2016 at 2:28:02 PM

Latest Report: Apr 30, 2016 at 1:00 PM


Visibility: N/A

Pressure: 29.65 "Hg (26.30 "Hg at 1053m altitude)

Humidity: 11%

Dew Point: 21 °F

Location of HohhotLocation

Historic Weather in Hohhot — Graph

°F

Hohhot Temperature Yesterday

Maximum temperature yesterday: 81 °F (at 3:00 PM)
Minimum temperature yesterday: 46 °F (at 6:00 AM)
Average temperature yesterday: 66 °F

High & Low Weather Summary for the Past Weeks

 TemperatureHumidityPressure
High81 °F (Apr 29, 3:00 PM)88% (Apr 27, 1:00 AM)30.09 "Hg (Apr 27, 1:00 AM)
Low21 °F (Apr 18, 6:00 AM)5% (Apr 23, 11:00 AM)29.65 "Hg (Apr 30, 12:00 PM)
Average55 °F31%29.90 "Hg
* Reported Apr 15 1:00 PM — Apr 30 1:00 PM, Hohhot, Weather by CustomWeather, © 2016

Note: Actual official high and low records may vary slightly from our data, if they occured in-between our weather recording intervals... More about our weather records

Advertising

Hohhot Weather History for the Previous 24 Hours

Scroll right to see more
 ConditionsComfort  
Time TempWeatherWind HumidityBarometerVisibility
1:00 PM
Sat, Apr 30
81 °FPassing clouds.15 mph11%29.65 "HgN/A
12:00 PM77 °FSunny.15 mph12%29.65 "Hg10 mi
11:00 AM73 °FPassing clouds.6 mph15%29.68 "HgN/A
10:00 AM70 °FPassing clouds.3 mph17%29.71 "HgN/A
9:00 AM68 °FSunny.1 mph18%29.74 "Hg10 mi
8:00 AM59 °FSunny.3 mph23%29.74 "Hg10 mi
7:00 AM52 °FSunny.6 mph32%29.74 "Hg10 mi
6:00 AM48 °FSunny.3 mph34%29.74 "Hg10 mi
5:00 AM50 °FClear.3 mph32%29.74 "Hg10 mi
4:00 AM46 °FClear.3 mph37%29.74 "Hg10 mi
3:00 AM50 °FClear.6 mph32%29.74 "Hg10 mi
2:00 AM50 °FPassing clouds.3 mph30%29.74 "HgN/A
1:00 AM55 °FClear.3 mph24%29.74 "Hg10 mi
12:00 AM61 °FClear.3 mph19%29.77 "Hg10 mi
11:00 PM
Fri, Apr 29
66 °FPassing clouds.6 mph15%29.77 "HgN/A
10:00 PM68 °FClear.8 mph13%29.77 "Hg10 mi
9:00 PM72 °FPassing clouds.6 mph12%29.74 "HgN/A
8:00 PM73 °FPassing clouds.3 mph12%29.71 "HgN/A
7:00 PM75 °FPassing clouds.10 mph10%29.71 "HgN/A
6:00 PM79 °FPassing clouds.13 mph10%29.68 "HgN/A
5:00 PM81 °FPassing clouds.20 mph9%29.68 "HgN/A
4:00 PM81 °FPassing clouds.17 mph10%29.68 "HgN/A
3:00 PM81 °FPassing clouds.20 mph15%29.71 "HgN/A
2:00 PM79 °FPassing clouds.17 mph17%29.71 "HgN/A
Weather by CustomWeather, © 2016

See weather overviewHow to use our weather pages